Regional Weather Roundup
Issued by NWS Green Bay, WI

Home | Current Version | Previous Version | Graphics & Text | Print | Product List | Glossary Off
Versions: 1 2 3 4 5 6 7 8 9 10 11 12 13 14 15 16 17 18 19 20 21 22 23 24 25 26 27 28 29 30 31 32 33 34 35 36 37 38 39 40 41 42 43 44 45 46 47 48

274
ASUS43 KGRB 221211
RWRGRB

NORTH-CENTRAL AND NORTHEAST WISCONSIN REGIONAL WEATHER ROUNDUP
NATIONAL WEATHER SERVICE GREEN BAY WI
700 AM CDT FRI MAY 22 2015

WIZ005-009-010>012-018-019-221300-
NORTH CENTRAL WISCONSIN

CITY           SKY/WX    TMP DP  RH WIND       PRES   REMARKS
IRONWOOD       SUNNY     37  34  87 CALM      30.17R
MANITOWISH WTR SUNNY     37  37 100 CALM      30.18S
ARBOR VITAE    SUNNY     40  34  76 CALM      30.18R
EAGLE RIVER    SUNNY     37  32  82 CALM      30.18R
LAND O LAKES   SUNNY     36  32  85 CALM      30.20R
RHINELANDER    SUNNY     41  31  67 CALM      30.19R
PHILLIPS       SUNNY     36  35  94 CALM      30.18R
ANTIGO         SUNNY     38  32  80 CALM      30.20R
TOMAHAWK       SUNNY     33  32  96 CALM      30.19R
MERRILL        SUNNY     37  35  95 CALM      30.20R
$$

WIZ013-073-221300-
NORTHEAST WISCONSIN

CITY           SKY/WX    TMP DP  RH WIND       PRES   REMARKS
IRON MOUNTAIN  SUNNY     37  28  70 CALM      30.19R
MARINETTE      SUNNY     39  27  60 N5        30.20R
OCONTO         SUNNY     41  35  78 CALM      30.19S
$$

WIZ017-030-035>037-045-221300-
CENTRAL WISCONSIN

CITY           SKY/WX    TMP DP  RH WIND       PRES   REMARKS
MEDFORD        SUNNY     40  37  89 CALM      30.19R
WAUSAU         SUNNY     41  36  82 E6        30.18R
MOSINEE        SUNNY     41  36  81 VRB5      30.20R
MARSHFIELD     SUNNY     46  38  73 E6        30.19R
WISC RAPIDS    SUNNY     45  34  65 E5        30.21R
STEVENS POINT  SUNNY     39  34  82 CALM      30.20R
WAUPACA        SUNNY     43  39  86 CALM      30.21R
SHAWANO        SUNNY     43  37  80 CALM      30.21R
CLINTONVILLE   SUNNY     41  37  87 CALM      30.21R
$$

WIZ038-039-048-051-221300-
FOX VALLEY

CITY           SKY/WX    TMP DP  RH WIND       PRES   REMARKS
NWS GREEN BAY  SUNNY     45  38  76 CALM      30.20R
APPLETON       SUNNY     43  32  65 N6        30.20R
OSHKOSH        SUNNY     47  36  65 CALM      30.19R
FOND DU LAC    SUNNY     46  32  58 CALM      30.20R
$$

WIZ022-050-052-221300-
EAST CENTRAL WISCONSIN

CITY           SKY/WX    TMP DP  RH WIND       PRES   REMARKS
STURGEON BAY   SUNNY     45  28  53 N7        30.22R
MANITOWOC      SUNNY     44  37  76 CALM      30.21R
SHEBOYGAN      SUNNY     45  34  65 CALM      30.19R
$$

LMZ563-521-522-541>543-221300-
LAKESHORE

STATION/POSITION TIME  TEMP    WIND        PRES    VSBY  WAVE
                       AIR SEA DIR/SP/G                  HT/PER
                 (UTC) (F)     (DEG/KT/KT) (MB)    (MI)  (FT/S)
SHEBOYGAN LKSHOR 1200          350/  7/  8 1023.1R
KEWAUNEE LKSHORE 1100          300/  4/  5 1021.0R
NORTHPORT PIER   1200   45     360/  8/ 18 1022.7R
N MID LAKE BUOY  1150   38 36  320/  6/  8 1023.1R         1/ 3
SISTER BAY LKSHO 1147   44      10/ 11/ 13   N/A
STURGEON BAY CG  1155          300/  4     1022.6      6   1
CHAMBERS ISLAND  1100   46     310/  5/  6 1022.4R
MENOMINEE LKSHOR 1100   41     300/  4/  5 1022.5R
$$



USA.gov is the U.S. government's official web portal to all federal, state and local government web resources and services.